Wind_Speed
50 55 59 58 47 57 54 54 54 62 57 52 58 64 70 71 76 76 78 78 80 84 83 83 86 86 89 100 100 96 97 91 84 80 74 73 75 74 78 72 72 76 75
55 58 61 59 60 61 62 66 65 62 63 61 62 60 66 73 80 83 82 85 87 89 91 93 96 99 109 110 107 93 82 77 75 77 76 76 75 81 82 78 78 80 80
69 68 62 70 65 72 69 76 77 72 72 74 73 81 79 81 85 89 90 93 93 95 99 104 110 109 114 105 94 88 83 83 84 87 87 92 91 88 90 90 91 92 89
60 71 78 74 73 75 76 80 80 79 75 78 81 85 86 87 89 89 90 95 102 105 107 111 116 108 102 98 97 96 96 94 87 86 87 87 92 88 87 92 96 92 94
62 65 76 83 88 81 78 83 84 87 90 88 88 91 90 94 98 105 107 107 110 112 115 109 96 92 93 95 97 100 94 90 82 80 78 75 72 71 72 80 84 84 90
60 64 67 72 79 87 88 88 85 86 87 91 91 91 92 97 104 106 108 108 105 99 96 91 95 97 101 93 87 81 74 68 66 63 61 64 64 63 65 70 77 81 83
52 54 57 62 68 73 80 80 83 84 85 89 94 97 100 103 103 101 101 99 92 90 93 96 96 88 76 68 61 54 50 49 51 51 52 50 46 49 54 57 62 69 76
44 45 48 53 56 60 65 73 79 85 89 91 93 93 91 87 86 85 83 83 88 89 86 79 72 65 57 51 45 42 40 39 36 37 36 37 38 40 43 45 47 54 65
34 37 39 41 44 47 49 51 55 59 63 65 67 68 72 73 73 76 80 81 80 73 64 54 46 43 39 32 26 23 23 27 29 28 27 27 27 29 30 32 36 44 48
27 26 27 29 30 33 38 41 44 49 54 59 63 67 70 74 74 72 70 58 55 47 38 31 28 26 23 20 22 23 25 28 28 27 26 27 29 30 30 33 35 37 40
26 28 29 30 32 36 40 45 50 55 58 62 63 62 64 64 62 51 43 40 33 27 23 19 16 15 16 17 17 19 21 22 25 26 28 29 32 36 36 36 39 43 48
24 27 32 36 39 43 44 47 50 49 50 53 57 56 52 48 40 35 29 24 19 16 15 13 14 13 14 17 19 21 22 23 23 26 28 30 32 35 39 40 39 40 44
27 30 33 35 37 39 38 37 40 42 45 47 45 45 43 37 33 27 25 23 20 18 18 19 17 15 19 20 22 24 25 27 28 27 30 35 36 35 38 42 44 44 46
32 31 31 31 30 30 29 34 37 34 35 38 39 39 37 34 30 28 27 25 22 22 21 21 22 24 23 23 25 26 28 27 27 29 32 34 36 40 44 48 51 50 53
20 21 22 22 25 31 33 36 38 39 38 39 40 40 37 33 32 29 29 28 27 25 23 23 23 22 24 25 27 30 29 26 28 30 34 37 42 44 46 50 51 53 57
26 26 28 30 35 38 40 41 40 40 44 43 44 43 40 34 32 31 31 30 29 28 25 22 21 22 25 28 32 34 34 32 33 34 37 40 42 45 49 53 55 58 59
33 36 34 30 36 36 40 41 43 47 46 46 48 47 41 36 34 32 33 33 31 30 30 27 26 27 28 33 36 36 37 37 36 36 40 46 50 54 55 55 56 60 64
32 30 31 33 36 39 42 42 46 45 47 51 53 49 39 36 39 35 33 33 32 31 32 35 35 32 32 40 39 40 41 42 41 43 49 54 56 59 62 61 63 66 70
29 29 32 37 40 43 44 45 46 46 51 55 51 44 38 40 41 36 34 33 34 35 34 36 38 35 40 41 42 44 44 43 45 47 51 54 57 59 62 65 68 70 73
38 38 41 43 47 45 42 43 46 50 52 50 46 43 41 39 40 38 35 31 32 34 36 37 37 38 38 40 43 44 45 46 48 51 54 57 59 61 66 70 73 76 79
43 44 46 48 46 42 44 48 49 48 46 39 34 32 34 37 37 34 34 31 30 32 35 35 32 32 34 44 45 44 46 50 53 55 57 58 60 64 68 72 75 79 81
46 48 50 50 45 47 50 48 44 46 39 31 22 18 23 30 33 34 34 32 33 37 35 33 34 36 47 49 48 46 49 53 57 58 59 62 66 70 73 77 78 81 82
49 49 50 47 48 50 50 43 42 42 33 25 19 19 23 29 34 33 32 34 37 37 35 36 42 47 48 50 48 49 52 56 58 59 63 67 70 73 76 81 82 82 84
45 46 45 48 49 45 38 38 42 36 31 25 26 28 30 31 31 30 32 35 34 36 39 40 42 47 49 47 49 53 56 58 61 64 67 70 73 76 80 83 83 85 89
41 45 46 39 42 40 38 40 39 34 30 28 28 28 29 29 29 30 32 35 39 40 40 43 45 48 49 52 55 58 60 63 66 70 75 78 81 84 86 85 83 86 85
43 47 48 50 49 41 37 39 37 33 30 28 25 25 27 30 33 36 38 40 42 44 44 46 46 47 51 57 60 62 64 67 72 76 78 81 85 86 89 86 84 85 88
Wind_Direction
249 250 248 252 246 244 248 245 254 246 255 251 252 255 257 255 259 268 272 274 274 275 276 277 277 282 286 290 291 290 289 284 283 279 274 271 271 271 267 262 260 259 257
242 242 246 246 248 251 253 246 254 258 255 250 253 249 254 257 262 267 270 270 271 272 277 279 281 285 289 288 292 291 289 283 276 272 270 273 275 276 269 260 263 264 260
237 241 239 241 243 245 247 251 252 258 258 258 258 256 264 264 262 267 272 274 275 279 280 282 287 288 289 295 293 291 287 283 277 273 269 268 274 277 270 260 263 264 262
245 239 237 241 243 244 249 249 254 259 261 267 265 264 267 270 269 272 273 275 280 283 285 287 289 292 291 289 288 287 285 286 283 276 278 275 271 269 265 260 262 261 255
250 247 241 241 244 250 249 249 253 257 260 265 266 266 268 269 270 273 281 283 285 287 287 290 289 290 292 288 287 285 285 286 280 276 273 270 268 264 259 257 257 256 253
253 250 248 248 246 247 253 256 258 262 265 266 270 270 272 273 275 278 282 283 286 287 288 288 290 291 290 289 288 287 284 282 278 275 274 273 270 270 266 261 255 254 255
260 257 254 252 251 250 253 257 260 262 265 266 269 273 276 279 281 283 284 285 285 288 288 289 289 288 288 288 287 284 281 277 276 276 274 272 270 267 264 260 257 252 248
260 261 259 260 262 262 261 261 262 263 266 269 272 275 278 280 280 281 283 287 288 288 288 286 284 284 284 283 283 284 284 283 281 278 277 278 276 273 269 266 262 259 255
257 260 261 262 263 263 263 264 265 265 268 271 273 277 279 282 284 288 288 290 291 287 285 283 283 281 282 283 284 286 285 282 281 283 285 287 286 280 276 273 272 268 266
252 255 258 258 261 264 266 267 268 269 272 274 277 279 282 286 288 290 293 292 291 286 282 280 277 275 277 282 288 287 283 283 286 287 285 285 284 284 285 282 281 273 271
261 263 263 261 262 265 267 269 272 274 276 277 280 285 286 290 295 295 293 294 287 279 272 266 270 281 287 289 292 294 294 290 290 288 288 290 288 285 288 288 283 280 278
265 269 266 266 266 274 277 277 278 281 286 286 287 288 292 297 297 298 298 294 278 265 266 273 268 270 284 297 302 309 307 303 297 289 289 290 289 291 295 299 300 299 296
286 284 281 280 279 281 283 289 294 293 289 288 288 291 294 297 294 287 284 281 279 279 278 263 254 273 300 299 308 312 318 312 307 303 301 301 303 305 307 311 309 309 310
287 286 284 285 285 283 289 298 299 309 312 305 297 294 292 290 283 276 274 274 275 281 272 260 265 274 288 302 313 319 317 311 304 300 301 306 308 307 308 312 311 311 314
299 294 291 290 293 292 294 296 297 297 302 308 309 300 288 285 278 274 270 271 277 273 271 267 268 277 290 300 312 316 317 313 311 311 312 312 310 308 308 310 313 314 313
294 291 287 286 291 291 289 294 299 299 299 301 304 303 292 280 276 271 267 267 269 265 266 267 277 283 291 300 306 311 314 314 317 317 317 316 316 316 315 315 317 317 315
291 291 293 291 289 296 301 300 299 301 299 299 302 299 289 273 272 267 262 262 263 265 267 275 282 281 291 300 303 308 312 311 310 311 313 318 319 319 320 318 316 316 317
288 294 296 298 297 299 302 302 301 298 298 298 297 292 281 260 262 263 262 262 264 269 268 271 277 282 293 302 305 305 304 302 303 308 312 314 315 317 317 317 317 316 316
285 291 299 305 307 307 302 298 299 299 298 298 293 286 269 252 252 261 261 262 263 267 273 279 278 282 294 300 301 300 302 302 304 308 310 312 315 316 316 315 315 315 316
296 296 302 306 311 307 300 298 299 303 302 297 289 280 266 251 247 253 257 265 270 274 277 285 284 289 294 300 299 296 300 304 306 307 309 312 314 315 315 317 317 317 317
296 302 306 308 312 304 300 305 306 306 306 301 291 273 252 241 243 256 257 260 272 277 279 282 285 286 291 302 303 300 302 305 305 307 311 312 315 318 317 316 315 315 315
295 299 306 310 307 303 305 307 305 310 309 305 298 266 240 237 244 258 256 259 270 277 280 275 274 285 299 299 300 301 302 303 304 310 312 312 314 315 316 315 314 314 315
294 300 303 305 305 304 305 304 302 310 304 293 277 262 254 250 255 257 254 259 268 277 281 282 288 293 294 298 300 302 302 303 307 309 310 312 315 316 316 316 315 316 316
296 299 306 308 305 304 304 299 302 306 298 279 270 268 264 260 255 251 254 263 276 289 287 286 289 293 298 298 300 302 304 305 308 309 310 309 311 313 314 314 315 315 315
300 301 304 305 311 305 299 298 298 300 296 284 277 274 266 260 257 260 267 277 284 288 288 292 294 299 300 300 304 306 306 307 308 309 310 311 311 311 311 310 311 313 314
297 296 299 296 298 302 297 294 295 292 291 289 285 277 268 263 263 266 271 277 284 289 294 296 296 295 299 305 305 304 304 305 307 308 308 308 309 309 309 308 311 315 315
Height
10910 10909 10908 10910 10909 10908 10907 10908 10904 10902 10903 10899 10898 10897 10897 10894 10890 10886 10884 10882 10878 10876 10874 10873 10871 10868 10863 10861 10860 10858 10854 10850 10848 10845 10845 10845 10847 10847 10847 10850 10852 10857 10860
10892 10890 10891 10892 10893 10893 10893 10891 10889 10886 10885 10884 10883 10881 10881 10879 10877 10873 10868 10864 10860 10856 10853 10850 10847 10843 10841 10834 10832 10828 10825 10822 10821 10820 10818 10817 10819 10822 10823 10823 10827 10831 10835
10869 10872 10875 10874 10874 10875 10875 10872 10871 10870 10868 10868 10867 10866 10864 10862 10857 10854 10848 10844 10838 10835 10832 10827 10823 10819 10813 10805 10800 10798 10798 10798 10797 10795 10793 10790 10787 10787 10793 10795 10797 10802 10806
10849 10851 10856 10855 10854 10854 10856 10855 10853 10853 10852 10851 10850 10847 10845 10841 10835 10829 10825 10820 10816 10810 10806 10800 10796 10789 10784 10781 10776 10771 10768 10765 10763 10762 10760 10758 10756 10755 10754 10759 10766 10769 10774
10824 10827 10833 10833 10832 10835 10836 10837 10838 10834 10833 10830 10828 10826 10823 10816 10810 10807 10802 10796 10790 10785 10782 10777 10770 10763 10757 10751 10746 10740 10735 10732 10729 10728 10726 10725 10725 10725 10725 10728 10733 10738 10744
10799 10805 10809 10812 10814 10816 10815 10816 10817 10816 10814 10809 10806 10803 10800 10794 10791 10786 10783 10778 10771 10766 10760 10751 10745 10738 10729 10720 10715 10709 10705 10702 10700 10700 10700 10701 10700 10700 10701 10702 10707 10711 10717
10778 10781 10785 10789 10791 10795 10798 10798 10796 10795 10794 10791 10788 10783 10780 10775 10771 10766 10762 10755 10746 10739 10734 10728 10720 10710 10703 10697 10694 10690 10686 10683 10682 10681 10681 10681 10682 10681 10681 10681 10681 10684 10688
10764 10766 10770 10774 10776 10778 10780 10780 10779 10779 10777 10774 10769 10766 10761 10756 10751 10746 10741 10733 10725 10716 10707 10699 10694 10689 10685 10683 10682 10678 10675 10671 10670 10669 10667 10665 10666 10667 10665 10665 10664 10663 10665
10757 10758 10760 10761 10762 10763 10763 10763 10762 10760 10759 10756 10752 10749 10742 10736 10731 10727 10720 10709 10700 10690 10684 10681 10679 10676 10674 10674 10670 10667 10664 10659 10657 10656 10654 10653 10654 10654 10652 10652 10651 10649 10647
10751 10751 10752 10752 10752 10751 10751 10749 10748 10746 10743 10739 10734 10730 10725 10719 10712 10706 10697 10687 10679 10672 10671 10670 10668 10665 10663 10663 10662 10660 10658 10653 10649 10646 10645 10644 10644 10645 10644 10642 10640 10638 10637
10744 10744 10744 10743 10742 10741 10740 10738 10735 10732 10728 10724 10719 10713 10706 10698 10691 10686 10680 10673 10667 10666 10662 10660 10659 10658 10657 10657 10656 10653 10650 10647 10642 10639 10637 10637 10637 10635 10633 10631 10629 10626 10624
10734 10734 10733 10732 10730 10728 10725 10723 10720 10715 10710 10705 10700 10694 10689 10684 10679 10674 10669 10665 10662 10658 10656 10655 10654 10654 10653 10651 10649 10646 10643 10639 10636 10633 10631 10630 10629 10625 10622 10619 10616 10613 10610
10724 10722 10720 10718 10717 10715 10712 10708 10705 10701 10695 10690 10685 10681 10677 10673 10669 10666 10663 10660 10657 10654 10653 10651 10649 10648 10647 10646 10643 10639 10635 10631 10628 10625 10622 10619 10616 10613 10608 10604 10600 10597 10592
10712 10710 10708 10706 10705 10704 10701 10698 10694 10689 10684 10679 10675 10670 10667 10664 10662 10659 10655 10652 10651 10649 10648 10645 10644 10643 10641 10638 10634 10631 10628 10624 10621 10618 10615 10611 10606 10601 10595 10591 10584 10579 10574
10703 10701 10699 10698 10697 10695 10692 10689 10685 10680 10675 10670 10665 10661 10658 10655 10652 10650 10648 10645 10644 10643 10642 10640 10637 10635 10632 10628 10624 10621 10618 10615 10611 10607 10603 10598 10592 10587 10582 10577 10571 10564 10556
10695 10693 10691 10689 10687 10684 10682 10677 10673 10668 10662 10658 10654 10649 10646 10645 10642 10640 10639 10638 10636 10633 10632 10630 10628 10625 10622 10619 10615 10612 10608 10603 10599 10594 10590 10586 10581 10575 10568 10560 10553 10545 10538
10687 10685 10683 10680 10677 10673 10667 10662 10657 10652 10646 10643 10640 10636 10634 10632 10630 10629 10627 10627 10625 10624 10622 10620 10618 10616 10613 10610 10606 10601 10596 10592 10587 10583 10578 10572 10566 10559 10551 10544 10538 10529 10520
10679 10675 10672 10669 10665 10660 10654 10649 10643 10637 10633 10629 10625 10622 10619 10617 10615 10616 10615 10614 10614 10612 10611 10609 10608 10606 10603 10600 10595 10590 10586 10581 10576 10570 10563 10557 10550 10543 10536 10528 10520 10511 10502
10667 10664 10660 10655 10651 10646 10641 10636 10630 10626 10619 10612 10607 10604 10603 10600 10601 10603 10603 10602 10602 10602 10601 10600 10598 10596 10593 10589 10584 10580 10575 10569 10563 10556 10549 10543 10536 10528 10520 10510 10501 10492 10483
10655 10651 10647 10642 10638 10633 10628 10623 10618 10611 10602 10593 10587 10585 10585 10586 10589 10590 10592 10592 10593 10593 10591 10590 10588 10586 10582 10577 10572 10566 10560 10555 10548 10542 10535 10528 10520 10511 10502 10492 10481 10471 10463
10644 10640 10636 10632 10625 10620 10614 10607 10601 10594 10586 10578 10570 10567 10568 10572 10579 10581 10582 10583 10583 10582 10580 10578 10577 10574 10570 10564 10558 10552 10545 10539 10533 10526 10519 10511 10503 10494 10484 10475 10465 10454 10443
10633 10628 10623 10618 10612 10606 10600 10594 10587 10581 10574 10568 10563 10561 10562 10565 10569 10571 10572 10573 10572 10571 10569 10567 10564 10561 10556 10549 10543 10536 10530 10523 10516 10509 10502 10494 10485 10476 10467 10457 10446 10434 10421
10620 10615 10609 10604 10597 10592 10587 10581 10576 10570 10565 10562 10560 10559 10559 10559 10560 10561 10563 10563 10562 10561 10559 10556 10552 10548 10542 10535 10528 10522 10515 10508 10500 10493 10484 10475 10467 10457 10447 10436 10424 10412 10400
10607 10601 10595 10589 10583 10578 10574 10569 10565 10561 10557 10554 10552 10551 10551 10551 10550 10551 10553 10553 10552 10551 10548 10544 10538 10533 10527 10520 10514 10507 10499 10492 10484 10476 10467 10458 10448 10437 10425 10413 10401 10389 10378
10592 10587 10582 10577 10572 10567 10563 10559 10555 10551 10548 10546 10545 10543 10543 10543 10544 10544 10544 10543 10542 10539 10534 10530 10524 10517 10510 10505 10498 10491 10484 10475 10467 10457 10448 10436 10425 10415 10404 10391 10379 10368 10354
10582 10576 10572 10567 10562 10556 10552 10548 10545 10542 10540 10538 10537 10536 10536 10536 10536 10534 10533 10531 10527 10523 10518 10514 10509 10502 10494 10487 10481 10474 10466 10457 10447 10438 10428 10417 10405 10393 10380 10368 10354 10340 10328